Location: Balmoral
(33.0667°S, 151.5833°E)
Time: 01:35:13
(UTC+00:00)

OAO 3 Copernicus - Pass Details

Date: 18 September 2020
Orbit: 694 x 705 km, 35.0° (Epoch: 21 October)

Event Time Altitude Azimuth Distance (km) Brightness Sun altitude
Exits shadow 17:39:35 71° 148° (SSE) 750 4.4 -27.3°
Drops below altitude 10° 17:44:25 10° 90° (E) 2,172 7.8 -26.3°
Sets 17:46:50 0° 87° (E) 3,087 8.8 -25.8°
